Вернуться в каталог

BREEZE-M DEB

TANK

АктивенHEO
NORAD 31863·DEBRIS·🇷🇺 Russia

Запущен Jul 7, 2007 с Baikonur Cosmodrome

Loading…

Ближайшие Пролёты (ближайшие 24 часа)

TLE

СвежийSource: Space-Track

Эпоха: Sep 13, 2026, 22:30 UTC

1 31863U 07032B   26256.93786379  .00000350  00000-0  21744-3 0  9995
2 31863  45.9600 223.3142 4977340 178.8383 183.1441  5.56001766386269

Отслеживайте BREEZE-M DEB в реальном времени с AllMySat

Download on the App Store